Bethel, AK

6:08 PM AKDT on April 26, 2018 (GMT -0800)
Bethel

Weather History for PABE - October, 2011

Change the Weather History Date:

Wednesday, October 5, 2011

  Actual Average Record
Temperature  
Mean Temperature 40 °F 36 °F  
Max Temperature 46 °F 42 °F 57 °F (1952)
Min Temperature 33 °F 30 °F 15 °F (1992)
Degree Days  
Heating Degree Days 25 29  
Month to date heating degree days 138 139  
Since 1 July heating degree days 1516 1357  
Cooling Degree Days 0 0  
Month to date cooling degree days 0 0  
Year to date cooling degree days 0 4  
Moisture  
Dew Point 35 °F    
Average Humidity 0    
Maximum Humidity 0    
Minimum Humidity 0    
Precipitation  
Precipitation 0.01 in 0.06 in 0.60 in (1994)
Month to date precipitation 0.01 0.34  
Year to date precipitation 11.34 14.51  
Snow  
Snow 0.00 in 0.10 in - ()
Month to date snowfall 0.0 0.3  
Since 1 July snowfall 0.0 0.9  
Since 1 September snowfall 0.0 0.9  
Snow Depth 0.00 in    
Sea Level Pressure  
Sea Level Pressure 29.26 in    
Wind  
Wind Speed 8 mph (NE)    
Max Wind Speed 17 mph    
Max Gust Speed 21 mph    
Visibility 10 miles    
Events Rain    
T = Trace of Precipitation, MM = Missing Value Source: NWS Daily Summary

Daily Weather History Graph

Daily Weather History Graph

Search for Another Location

Airport or City:

Astronomy

Oct. 05, 2011 Rise Set
Actual Time 9:03 AM AKDT 8:06 PM AKDT
Civil Twilight 8:20 AM AKDT 8:49 PM AKDT
Nautical Twilight 7:31 AM AKDT 9:38 PM AKDT
Astronomical Twilight 6:39 AM AKDT 10:30 PM AKDT
Moon 6:15 PM AKDT (10/5) 1:26 AM AKDT (10/5)
Length of Visible Light 12h 28m
Length of Day
11h 03m
Waxing Gibbous, 67% of the Moon is Illuminated
Oct 5
Waxing Gibbous
Oct 11
Full
Oct 19
Last Quarter
Oct 26
New
Nov 2
First Quarter

Hourly Weather History & Observations

Time (AKDT) Temp. Windchill Dew Point Humidity Pressure Visibility Wind Dir Wind Speed Gust Speed Precip Events Conditions
12:53 AM 34.0 °F 28.8 °F 33.1 °F 96% 29.48 in 10.0 mi NNE 5.8 mph - N/A   Overcast
1:53 AM 34.0 °F 28.8 °F 33.1 °F 96% 29.46 in 10.0 mi NE 5.8 mph - N/A   Scattered Clouds
2:53 AM 34.0 °F 29.8 °F 32.0 °F 92% 29.43 in 10.0 mi ENE 4.6 mph - N/A   Mostly Cloudy
3:53 AM 34.0 °F 28.8 °F 32.0 °F 92% 29.41 in 10.0 mi ENE 5.8 mph - N/A   Partly Cloudy
4:53 AM 34.0 °F 31.0 °F 32.0 °F 92% 29.39 in 10.0 mi NE 3.5 mph - N/A   Overcast
5:53 AM 34.0 °F 28.8 °F 32.0 °F 92% 29.37 in 10.0 mi NE 5.8 mph - N/A   Mostly Cloudy
6:53 AM 34.0 °F 28.8 °F 32.0 °F 92% 29.34 in 10.0 mi ENE 5.8 mph - N/A   Overcast
7:53 AM 35.1 °F 30.1 °F 32.0 °F 89% 29.32 in 10.0 mi NE 5.8 mph - N/A   Overcast
8:53 AM 36.0 °F 31.1 °F 33.1 °F 89% 29.30 in 10.0 mi ENE 5.8 mph - 0.00 in   Mostly Cloudy
9:53 AM 37.0 °F 31.0 °F 33.1 °F 86% 29.28 in 10.0 mi NE 8.1 mph - 0.00 in Rain Light Rain
10:53 AM 37.0 °F 31.0 °F 33.1 °F 86% 29.26 in 10.0 mi NE 8.1 mph - 0.00 in Rain Light Rain
11:53 AM 39.0 °F 34.0 °F 34.0 °F 82% 29.25 in 10.0 mi NE 6.9 mph - 0.00 in Rain Light Rain
12:53 PM 39.9 °F 33.9 °F 36.0 °F 86% 29.22 in 10.0 mi NE 9.2 mph - 0.00 in   Overcast
1:53 PM 41.0 °F 35.2 °F 36.0 °F 82% 29.20 in 10.0 mi NNE 9.2 mph - 0.00 in Rain Light Rain
2:53 PM 43.0 °F 36.8 °F 37.9 °F 82% 29.18 in 10.0 mi NNE 11.5 mph - 0.00 in Rain Light Rain
3:53 PM 44.1 °F 38.1 °F 37.0 °F 76% 29.16 in 10.0 mi NE 11.5 mph - 0.00 in Rain Light Rain
4:53 PM 45.0 °F 39.3 °F 37.0 °F 74% 29.14 in 10.0 mi NE 11.5 mph - 0.00 in Rain Light Rain
5:53 PM 45.0 °F 38.9 °F 37.0 °F 74% 29.13 in 10.0 mi NE 12.7 mph - 0.00 in   Overcast
6:53 PM 44.1 °F 37.4 °F 36.0 °F 73% 29.13 in 10.0 mi NNE 13.8 mph - N/A   Overcast
7:53 PM 43.0 °F 37.7 °F 37.0 °F 80% 29.13 in 10.0 mi NE 9.2 mph - N/A   Overcast
8:53 PM 41.0 °F 35.8 °F 36.0 °F 82% 29.13 in 10.0 mi NE 8.1 mph - N/A   Overcast
9:53 PM 39.9 °F 34.5 °F 37.0 °F 89% 29.15 in 10.0 mi NE 8.1 mph - 0.00 in Rain Light Rain
10:53 PM 39.0 °F 34.8 °F 37.0 °F 93% 29.16 in 10.0 mi NE 5.8 mph - 0.01 in Rain Light Rain
11:53 PM 37.9 °F 34.4 °F 37.0 °F 97% 29.17 in 10.0 mi North 4.6 mph - 0.00 in   Overcast